Flag for Canada

Past Weather in Fort St. John, British Columbia, Canada — Yesterday and Last 2 Weeks

Now
52 °F

Sprinkles. Mostly cloudy.


Feels Like: 48 °F
Forecast: 53 / 49 °F
Wind: 10 mph from North

Location: Fort St John

Current Time: Jul 3, 2020 at 10:37:15 am

Latest Report: Jul 3, 2020 at 10:00 am


Visibility: 8 mi

Pressure: 29.90 "Hg (27.53 "Hg at 689m altitude)

Humidity: 94%

Dew Point: 50 °F

Location of Fort St. JohnLocation

Past Weather in Fort St. John — Graph

°F

Fort St. John Temperature Yesterday

Maximum temperature yesterday: 66 °F (at 2:00 pm)
Minimum temperature yesterday: 52 °F (at 10:00 pm)
Average temperature yesterday: 59 °F

High & Low Weather Summary for the Past Weeks

 TemperatureHumidityPressure
High77 °F (Jun 19, 4:00 pm)100% (Jun 30, 6:00 am)30.14 "Hg (Jun 30, 6:00 am)
Low50 °F (Jun 28, 6:00 am)27% (Jun 24, 7:00 pm)29.51 "Hg (Jul 2, 6:00 am)
Average62 °F63%29.84 "Hg
* Reported Jun 18 9:00 am — Jul 3 9:27 am, Fort St. John. Weather by CustomWeather, © 2020

Note: Actual official high and low records may vary slightly from our data, if they occured in-between our weather recording intervals... More about our weather records

Fort St. John Weather History for the Previous 24 Hours

Scroll right to see more
 ConditionsComfort  
Time TempWeatherWind HumidityBarometerVisibility
9:27 am
Fri, Jul 3
52 °FSprinkles. Mostly cloudy.12 mph88%29.90 "Hg15 mi
9:00 am52 °FSprinkles. Mostly cloudy.15 mph88%29.89 "Hg15 mi
8:30 am54 °FSprinkles. Mostly cloudy.12 mph88%29.88 "Hg15 mi
8:02 am54 °FSprinkles. Mostly cloudy.12 mph94%29.87 "Hg15 mi
7:10 am54 °FPartly sunny.7 mph94%29.86 "Hg15 mi
7:00 am54 °FBroken clouds.6 mph94%29.85 "Hg15 mi
6:00 am52 °FBroken clouds.9 mph94%29.84 "Hg15 mi
10:00 pm
Thu, Jul 2
52 °FPartly sunny.8 mph94%29.74 "Hg30 mi
9:31 pm54 °FPartly sunny.9 mph88%29.74 "Hg30 mi
9:00 pm54 °FSprinkles. Broken clouds.7 mph94%29.74 "Hg15 mi
8:33 pm54 °FSprinkles. Broken clouds.10 mph94%29.74 "Hg15 mi
8:00 pm54 °FScattered showers. Broken clouds.12 mph94%29.74 "Hg30 mi
7:16 pm57 °FThunderstorms. Partly sunny.6 mph88%29.71 "Hg30 mi
6:03 pm59 °FThunderstorms. Broken clouds.9 mph77%29.67 "Hg30 mi
5:50 pm57 °FSprinkles. Partly sunny.12 mph82%29.68 "Hg30 mi
5:00 pm64 °FScattered showers. Broken clouds.9 mph68%29.66 "Hg30 mi
4:00 pm66 °FBroken clouds.3 mph60%29.64 "Hg30 mi
3:00 pm66 °FBroken clouds.10 mph68%29.63 "Hg30 mi
2:54 pm66 °FBroken clouds.9 mph68%29.62 "Hg30 mi
2:26 pm64 °FSprinkles. Broken clouds.8 mph78%29.62 "Hg30 mi
2:00 pm66 °FBroken clouds.15 mph73%29.62 "Hg30 mi
1:00 pm63 °FPartly sunny.12 mph73%29.61 "Hg15 mi
12:00 pm61 °FBroken clouds.10 mph83%29.59 "Hg15 mi
11:27 am61 °FPartly sunny.9 mph83%29.59 "Hg15 mi
11:00 am59 °FLight rain. Cloudy.16 mph82%29.57 "Hg15 mi
10:51 am61 °FLight rain. Cloudy.12 mph77%29.57 "Hg15 mi
10:00 am59 °FBroken clouds.15 mph88%29.55 "Hg15 mi
Weather by CustomWeather, © 2020

See weather overview